Year,Month,Day,Hour,Minute,Value (Times are PST for temperature in C)
2015,04,18,00,00,8.10
2015,04,18,00,01,8.00
2015,04,18,00,02,8.00
2015,04,18,00,03,8.00
2015,04,18,00,04,8.00
2015,04,18,00,05,7.90
2015,04,18,00,06,7.90
2015,04,18,00,07,7.90
2015,04,18,00,08,7.90
2015,04,18,00,09,7.80
2015,04,18,00,10,7.80
2015,04,18,00,11,7.80
2015,04,18,00,12,7.80
2015,04,18,00,13,7.70
2015,04,18,00,14,7.70
2015,04,18,00,15,7.70
2015,04,18,00,16,7.60
2015,04,18,00,17,7.60
2015,04,18,00,18,7.60
2015,04,18,00,19,7.60
2015,04,18,00,20,7.60
2015,04,18,00,21,7.60
2015,04,18,00,22,7.60
2015,04,18,00,23,7.60
2015,04,18,00,24,7.60
2015,04,18,00,25,7.50
2015,04,18,00,26,7.50
2015,04,18,00,27,7.50
2015,04,18,00,28,7.50
2015,04,18,00,29,7.40
2015,04,18,00,30,7.40
2015,04,18,00,31,7.40
2015,04,18,00,32,7.40
2015,04,18,00,33,7.40
2015,04,18,00,34,7.30
2015,04,18,00,35,7.30
2015,04,18,00,36,7.30
2015,04,18,00,37,7.20
2015,04,18,00,38,7.20
2015,04,18,00,39,7.20
2015,04,18,00,40,7.20
2015,04,18,00,41,7.20
2015,04,18,00,42,7.10
2015,04,18,00,43,7.10
2015,04,18,00,44,7.10
2015,04,18,00,45,7.00
2015,04,18,00,46,7.00
2015,04,18,00,47,7.00
2015,04,18,00,48,6.90
2015,04,18,00,49,6.90
2015,04,18,00,50,6.90
2015,04,18,00,51,6.90
2015,04,18,00,52,6.80
2015,04,18,00,53,6.80
2015,04,18,00,54,6.80
2015,04,18,00,55,6.80
2015,04,18,00,56,6.80
2015,04,18,00,57,6.70
2015,04,18,00,58,6.70
2015,04,18,00,59,6.70
2015,04,18,01,00,6.70
2015,04,18,01,01,6.70
2015,04,18,01,02,6.70
2015,04,18,01,03,6.70
2015,04,18,01,04,6.70
2015,04,18,01,05,6.70
2015,04,18,01,06,6.70
2015,04,18,01,07,6.70
2015,04,18,01,08,6.60
2015,04,18,01,09,6.60
2015,04,18,01,10,6.60
2015,04,18,01,11,6.60
2015,04,18,01,12,6.60
2015,04,18,01,13,6.50
2015,04,18,01,14,6.50
2015,04,18,01,15,6.50
2015,04,18,01,16,6.40
2015,04,18,01,17,6.40
2015,04,18,01,18,6.40
2015,04,18,01,19,6.40
2015,04,18,01,20,6.40
2015,04,18,01,21,6.30
2015,04,18,01,22,6.30
2015,04,18,01,23,6.30
2015,04,18,01,24,6.30
2015,04,18,01,25,6.30
2015,04,18,01,26,6.30
2015,04,18,01,27,6.30
2015,04,18,01,28,6.30
2015,04,18,01,29,6.30
2015,04,18,01,30,6.30
2015,04,18,01,31,6.20
2015,04,18,01,32,6.20
2015,04,18,01,33,6.20
2015,04,18,01,34,6.20
2015,04,18,01,35,6.20
2015,04,18,01,36,6.20
2015,04,18,01,37,6.20
2015,04,18,01,38,6.20
2015,04,18,01,39,6.20
2015,04,18,01,40,6.20
2015,04,18,01,41,6.20
2015,04,18,01,42,6.20
2015,04,18,01,43,6.10
2015,04,18,01,44,6.10
2015,04,18,01,45,6.10
2015,04,18,01,46,6.10
2015,04,18,01,47,6.10
2015,04,18,01,48,6.20
2015,04,18,01,49,6.20
2015,04,18,01,50,6.20
2015,04,18,01,51,6.20
2015,04,18,01,52,6.20
2015,04,18,01,53,6.20
2015,04,18,01,54,6.20
2015,04,18,01,55,6.20
2015,04,18,01,56,6.30
2015,04,18,01,57,6.30
2015,04,18,01,58,6.30
2015,04,18,01,59,6.40
2015,04,18,02,00,6.40
2015,04,18,02,01,6.40
2015,04,18,02,02,6.50
2015,04,18,02,03,6.50
2015,04,18,02,04,6.50
2015,04,18,02,05,6.60
2015,04,18,02,06,6.60
2015,04,18,02,07,6.60
2015,04,18,02,08,6.60
2015,04,18,02,09,6.60
2015,04,18,02,10,6.60
2015,04,18,02,11,6.60
2015,04,18,02,12,6.60
2015,04,18,02,13,6.60
2015,04,18,02,14,6.60
2015,04,18,02,15,6.60
2015,04,18,02,16,6.60
2015,04,18,02,17,6.60
2015,04,18,02,18,6.60
2015,04,18,02,19,6.60
2015,04,18,02,20,6.60
2015,04,18,02,21,6.60
2015,04,18,02,22,6.60
2015,04,18,02,23,6.60
2015,04,18,02,24,6.60
2015,04,18,02,25,6.60
2015,04,18,02,26,6.60
2015,04,18,02,27,6.60
2015,04,18,02,28,6.60
2015,04,18,02,29,6.60
2015,04,18,02,30,6.60
2015,04,18,02,31,6.60
2015,04,18,02,32,6.60
2015,04,18,02,33,6.60
2015,04,18,02,34,6.60
2015,04,18,02,35,6.60
2015,04,18,02,36,6.60
2015,04,18,02,37,6.60
2015,04,18,02,38,6.60
2015,04,18,02,39,6.50
2015,04,18,02,40,6.50
2015,04,18,02,41,6.50
2015,04,18,02,42,6.50
2015,04,18,02,43,6.50
2015,04,18,02,44,6.50
2015,04,18,02,45,6.50
2015,04,18,02,46,6.40
2015,04,18,02,47,6.40
2015,04,18,02,48,6.40
2015,04,18,02,49,6.30
2015,04,18,02,50,6.30
2015,04,18,02,51,6.30
2015,04,18,02,52,6.30
2015,04,18,02,53,6.30
2015,04,18,02,54,6.20
2015,04,18,02,55,6.20
2015,04,18,02,56,6.20
2015,04,18,02,57,6.20
2015,04,18,02,58,6.10
2015,04,18,02,59,6.10
2015,04,18,03,00,6.10
2015,04,18,03,01,6.10
2015,04,18,03,02,6.10
2015,04,18,03,03,6.10
2015,04,18,03,04,6.00
2015,04,18,03,05,6.00
2015,04,18,03,06,6.00
2015,04,18,03,07,6.00
2015,04,18,03,08,6.00
2015,04,18,03,09,6.00
2015,04,18,03,10,6.00
2015,04,18,03,11,6.00
2015,04,18,03,12,6.00
2015,04,18,03,13,6.00
2015,04,18,03,14,6.00
2015,04,18,03,15,6.00
2015,04,18,03,16,6.00
2015,04,18,03,17,5.90
2015,04,18,03,18,5.90
2015,04,18,03,19,5.90
2015,04,18,03,20,5.90
2015,04,18,03,21,5.90
2015,04,18,03,22,5.90
2015,04,18,03,23,5.90
2015,04,18,03,24,5.90
2015,04,18,03,25,5.90
2015,04,18,03,26,5.90
2015,04,18,03,27,5.90
2015,04,18,03,28,5.80
2015,04,18,03,29,5.80
2015,04,18,03,30,5.80
2015,04,18,03,31,5.80
2015,04,18,03,32,5.80
2015,04,18,03,33,5.80
2015,04,18,03,34,5.80
2015,04,18,03,35,5.80
2015,04,18,03,36,5.80
2015,04,18,03,37,5.80
2015,04,18,03,38,5.80
2015,04,18,03,39,5.80
2015,04,18,03,40,5.70
2015,04,18,03,41,5.70
2015,04,18,03,42,5.70
2015,04,18,03,43,5.70
2015,04,18,03,44,5.70
2015,04,18,03,45,5.70
2015,04,18,03,46,5.70
2015,04,18,03,47,5.70
2015,04,18,03,48,5.70
2015,04,18,03,49,5.70
2015,04,18,03,50,5.70
2015,04,18,03,51,5.60
2015,04,18,03,52,5.60
2015,04,18,03,53,5.60
2015,04,18,03,54,5.60
2015,04,18,03,55,5.50
2015,04,18,03,56,5.50
2015,04,18,03,57,5.50
2015,04,18,03,58,5.40
2015,04,18,03,59,5.40
2015,04,18,04,00,5.40
2015,04,18,04,01,5.40
2015,04,18,04,02,5.30
2015,04,18,04,03,5.30
2015,04,18,04,04,5.30
2015,04,18,04,05,5.30
2015,04,18,04,06,5.20
2015,04,18,04,07,5.20
2015,04,18,04,08,5.20
2015,04,18,04,09,5.20
2015,04,18,04,10,5.10
2015,04,18,04,11,5.10
2015,04,18,04,12,5.10
2015,04,18,04,13,5.10
2015,04,18,04,14,5.00
2015,04,18,04,15,5.00
2015,04,18,04,16,5.00
2015,04,18,04,17,5.00
2015,04,18,04,18,4.90
2015,04,18,04,19,4.90
2015,04,18,04,20,4.90
2015,04,18,04,21,4.90
2015,04,18,04,22,4.90
2015,04,18,04,23,4.90
2015,04,18,04,24,4.80
2015,04,18,04,25,4.80
2015,04,18,04,26,4.80
2015,04,18,04,27,4.80
2015,04,18,04,28,4.80
2015,04,18,04,29,4.80
2015,04,18,04,30,4.80
2015,04,18,04,31,4.70
2015,04,18,04,32,4.70
2015,04,18,04,33,4.70
2015,04,18,04,34,4.70
2015,04,18,04,35,4.70
2015,04,18,04,36,4.70
2015,04,18,04,37,4.70
2015,04,18,04,38,4.70
2015,04,18,04,39,4.70
2015,04,18,04,40,4.70
2015,04,18,04,41,4.70
2015,04,18,04,42,4.70
2015,04,18,04,43,4.70
2015,04,18,04,44,4.70
2015,04,18,04,45,4.70
2015,04,18,04,46,4.60
2015,04,18,04,47,4.60
2015,04,18,04,48,4.60
2015,04,18,04,49,4.60
2015,04,18,04,50,4.60
2015,04,18,04,51,4.60
2015,04,18,04,52,4.60
2015,04,18,04,53,4.60
2015,04,18,04,54,4.50
2015,04,18,04,55,4.50
2015,04,18,04,56,4.50
2015,04,18,04,57,4.50
2015,04,18,04,58,4.50
2015,04,18,04,59,4.50
2015,04,18,05,00,4.50
2015,04,18,05,01,4.50
2015,04,18,05,02,4.50
2015,04,18,05,03,4.50
2015,04,18,05,04,4.50
2015,04,18,05,05,4.50
2015,04,18,05,06,4.50
2015,04,18,05,07,4.50
2015,04,18,05,08,4.50
2015,04,18,05,09,4.40
2015,04,18,05,10,4.40
2015,04,18,05,11,4.40
2015,04,18,05,12,4.40
2015,04,18,05,13,4.40
2015,04,18,05,14,4.40
2015,04,18,05,15,4.40
2015,04,18,05,16,4.30
2015,04,18,05,17,4.30
2015,04,18,05,18,4.30
2015,04,18,05,19,4.30
2015,04,18,05,20,4.30
2015,04,18,05,21,4.30
2015,04,18,05,22,4.30
2015,04,18,05,23,4.30
2015,04,18,05,24,4.30
2015,04,18,05,25,4.30
2015,04,18,05,26,4.30
2015,04,18,05,27,4.30
2015,04,18,05,28,4.30
2015,04,18,05,29,4.40
2015,04,18,05,30,4.40
2015,04,18,05,31,4.40
2015,04,18,05,32,4.40
2015,04,18,05,33,4.40
2015,04,18,05,34,4.40
2015,04,18,05,35,4.40
2015,04,18,05,36,4.40
2015,04,18,05,37,4.40
2015,04,18,05,38,4.40
2015,04,18,05,39,4.40
2015,04,18,05,40,4.40
2015,04,18,05,41,4.40
2015,04,18,05,42,4.40
2015,04,18,05,43,4.40
2015,04,18,05,44,4.40
2015,04,18,05,45,4.40
2015,04,18,05,46,4.40
2015,04,18,05,47,4.40
2015,04,18,05,48,4.40
2015,04,18,05,49,4.40
2015,04,18,05,50,4.40
2015,04,18,05,51,4.40
2015,04,18,05,52,4.40
2015,04,18,05,53,4.40
2015,04,18,05,54,4.40
2015,04,18,05,55,4.30
2015,04,18,05,56,4.30
2015,04,18,05,57,4.30
2015,04,18,05,58,4.30
2015,04,18,05,59,4.30
2015,04,18,06,00,4.30
2015,04,18,06,01,4.20
2015,04,18,06,02,4.20
2015,04,18,06,03,4.20
2015,04,18,06,04,4.20
2015,04,18,06,05,4.20
2015,04,18,06,06,4.20
2015,04,18,06,07,4.10
2015,04,18,06,08,4.10
2015,04,18,06,09,4.10
2015,04,18,06,10,4.10
2015,04,18,06,11,4.10
2015,04,18,06,12,4.10
2015,04,18,06,13,4.00
2015,04,18,06,14,4.00
2015,04,18,06,15,4.00
2015,04,18,06,16,4.00
2015,04,18,06,17,3.90
2015,04,18,06,18,3.90
2015,04,18,06,19,3.90
2015,04,18,06,20,3.90
2015,04,18,06,21,3.80
2015,04,18,06,22,3.80
2015,04,18,06,23,3.80
2015,04,18,06,24,3.80
2015,04,18,06,25,3.80
2015,04,18,06,26,3.80
2015,04,18,06,27,3.80
2015,04,18,06,28,3.80
2015,04,18,06,29,3.80
2015,04,18,06,30,3.80
2015,04,18,06,31,3.80
2015,04,18,06,32,3.80
2015,04,18,06,33,3.80
2015,04,18,06,34,3.80
2015,04,18,06,35,3.80
2015,04,18,06,36,3.80
2015,04,18,06,37,3.80
2015,04,18,06,38,3.80
2015,04,18,06,39,3.80
2015,04,18,06,40,3.80
2015,04,18,06,41,3.80
2015,04,18,06,42,3.80
2015,04,18,06,43,3.80
2015,04,18,06,44,3.80
2015,04,18,06,45,3.80
2015,04,18,06,46,3.80
2015,04,18,06,47,3.80
2015,04,18,06,48,3.80
2015,04,18,06,49,3.80
2015,04,18,06,50,3.70
2015,04,18,06,51,3.70
2015,04,18,06,52,3.70
2015,04,18,06,53,3.70
2015,04,18,06,54,3.70
2015,04,18,06,55,3.70
2015,04,18,06,56,3.70
2015,04,18,06,57,3.70
2015,04,18,06,58,3.60
2015,04,18,06,59,3.60
2015,04,18,07,00,3.60
2015,04,18,07,01,3.60
2015,04,18,07,02,3.60
2015,04,18,07,03,3.60
2015,04,18,07,04,3.60
2015,04,18,07,05,3.60
2015,04,18,07,06,3.60
2015,04,18,07,07,3.60
2015,04,18,07,08,3.60
2015,04,18,07,09,3.60
2015,04,18,07,10,3.70
2015,04,18,07,11,3.70
2015,04,18,07,12,3.70
2015,04,18,07,13,3.70
2015,04,18,07,14,3.70
2015,04,18,07,15,3.70
2015,04,18,07,16,3.70
2015,04,18,07,17,3.70
2015,04,18,07,18,3.80
2015,04,18,07,19,3.80
2015,04,18,07,20,3.80
2015,04,18,07,21,3.80
2015,04,18,07,22,3.80
2015,04,18,07,23,3.80
2015,04,18,07,24,3.90
2015,04,18,07,25,3.90
2015,04,18,07,26,4.00
2015,04,18,07,27,4.10
2015,04,18,07,28,4.10
2015,04,18,07,29,4.10
2015,04,18,07,30,4.20
2015,04,18,07,31,4.20
2015,04,18,07,32,4.20
2015,04,18,07,33,4.30
2015,04,18,07,34,4.40
2015,04,18,07,35,4.50
2015,04,18,07,36,4.60
2015,04,18,07,37,4.60
2015,04,18,07,38,4.70
2015,04,18,07,39,4.70
2015,04,18,07,40,4.80
2015,04,18,07,41,4.80
2015,04,18,07,42,4.90
2015,04,18,07,43,4.90
2015,04,18,07,44,5.00
2015,04,18,07,45,5.10
2015,04,18,07,46,5.20
2015,04,18,07,47,5.30
2015,04,18,07,48,5.40
2015,04,18,07,49,5.50
2015,04,18,07,50,5.60
2015,04,18,07,51,5.70
2015,04,18,07,52,5.80
2015,04,18,07,53,5.80
2015,04,18,07,54,5.90
2015,04,18,07,55,6.00
2015,04,18,07,56,6.10
2015,04,18,07,57,6.20
2015,04,18,07,58,6.30
2015,04,18,07,59,6.40
2015,04,18,08,00,6.60
2015,04,18,08,01,6.70
2015,04,18,08,02,6.80
2015,04,18,08,03,6.90
2015,04,18,08,04,7.00
2015,04,18,08,05,7.00
2015,04,18,08,06,7.10
2015,04,18,08,07,7.10
2015,04,18,08,08,7.20
2015,04,18,08,09,7.30
2015,04,18,08,10,7.40
2015,04,18,08,11,7.40
2015,04,18,08,12,7.40
2015,04,18,08,13,7.50
2015,04,18,08,14,7.60
2015,04,18,08,15,7.70
2015,04,18,08,16,7.70
2015,04,18,08,17,7.80
2015,04,18,08,18,7.90
2015,04,18,08,19,8.00
2015,04,18,08,20,8.10
2015,04,18,08,21,8.20
2015,04,18,08,22,8.30
2015,04,18,08,23,8.40
2015,04,18,08,24,8.50
2015,04,18,08,25,8.50
2015,04,18,08,26,8.60
2015,04,18,08,27,8.70
2015,04,18,08,28,8.80
2015,04,18,08,29,8.90
2015,04,18,08,30,9.00
2015,04,18,08,31,9.10
2015,04,18,08,32,9.20
2015,04,18,08,33,9.20
2015,04,18,08,34,9.30
2015,04,18,08,35,9.30
2015,04,18,08,36,9.40
2015,04,18,08,37,9.50
2015,04,18,08,38,9.50
2015,04,18,08,39,9.60
2015,04,18,08,40,9.70
2015,04,18,08,41,9.70
2015,04,18,08,42,9.80
2015,04,18,08,43,9.80
2015,04,18,08,44,9.80
2015,04,18,08,45,9.90
2015,04,18,08,46,9.90
2015,04,18,08,47,10.00
2015,04,18,08,48,10.00
2015,04,18,08,49,10.10
2015,04,18,08,50,10.10
2015,04,18,08,51,10.20
2015,04,18,08,52,10.20
2015,04,18,08,53,10.20
2015,04,18,08,54,10.30
2015,04,18,08,55,10.30
2015,04,18,08,56,10.40
2015,04,18,08,57,10.40
2015,04,18,08,58,10.50
2015,04,18,08,59,10.50
2015,04,18,09,00,10.60
2015,04,18,09,01,10.60
2015,04,18,09,02,10.70
2015,04,18,09,03,10.70
2015,04,18,09,04,10.70
2015,04,18,09,05,10.70
2015,04,18,09,06,10.70
2015,04,18,09,07,10.70
2015,04,18,09,08,10.70
2015,04,18,09,09,10.80
2015,04,18,09,10,10.80
2015,04,18,09,11,10.80
2015,04,18,09,12,10.80
2015,04,18,09,13,10.90
2015,04,18,09,14,10.90
2015,04,18,09,15,11.00
2015,04,18,09,16,11.00
2015,04,18,09,17,11.00
2015,04,18,09,18,11.10
2015,04,18,09,19,11.10
2015,04,18,09,20,11.10
2015,04,18,09,21,11.10
2015,04,18,09,22,11.10
2015,04,18,09,23,11.10
2015,04,18,09,24,11.10
2015,04,18,09,25,11.20
2015,04,18,09,26,11.20
2015,04,18,09,27,11.20
2015,04,18,09,28,11.20
2015,04,18,09,29,11.20
2015,04,18,09,30,11.30
2015,04,18,09,31,11.30
2015,04,18,09,32,11.30
2015,04,18,09,33,11.20
2015,04,18,09,34,11.20
2015,04,18,09,35,11.20
2015,04,18,09,36,11.20
2015,04,18,09,37,11.20
2015,04,18,09,38,11.20
2015,04,18,09,39,11.30
2015,04,18,09,40,11.30
2015,04,18,09,41,11.30
2015,04,18,09,42,11.30
2015,04,18,09,43,11.30
2015,04,18,09,44,11.30
2015,04,18,09,45,11.40
2015,04,18,09,46,11.40
2015,04,18,09,47,11.40
2015,04,18,09,48,11.40
2015,04,18,09,49,11.40
2015,04,18,09,50,11.40
2015,04,18,09,51,11.40
2015,04,18,09,52,11.50
2015,04,18,09,53,11.60
2015,04,18,09,54,11.60
2015,04,18,09,55,11.60
2015,04,18,09,56,11.70
2015,04,18,09,57,11.70
2015,04,18,09,58,11.70
2015,04,18,09,59,11.70
2015,04,18,10,00,11.70
2015,04,18,10,01,11.80
2015,04,18,10,02,11.80
2015,04,18,10,03,11.80
2015,04,18,10,04,11.80
2015,04,18,10,05,11.80
2015,04,18,10,06,11.80
2015,04,18,10,07,11.80
2015,04,18,10,08,11.80
2015,04,18,10,09,11.80
2015,04,18,10,10,11.70
2015,04,18,10,11,11.70
2015,04,18,10,12,11.70
2015,04,18,10,13,11.60
2015,04,18,10,14,11.60
2015,04,18,10,15,11.60
2015,04,18,10,16,11.60
2015,04,18,10,17,11.60
2015,04,18,10,18,11.60
2015,04,18,10,19,11.60
2015,04,18,10,20,11.60
2015,04,18,10,21,11.60
2015,04,18,10,22,11.70
2015,04,18,10,23,11.70
2015,04,18,10,24,11.70
2015,04,18,10,25,11.80
2015,04,18,10,26,11.80
2015,04,18,10,27,11.80
2015,04,18,10,28,11.80
2015,04,18,10,29,11.80
2015,04,18,10,30,11.80
2015,04,18,10,31,11.80
2015,04,18,10,32,11.80
2015,04,18,10,33,11.80
2015,04,18,10,34,11.90
2015,04,18,10,35,11.90
2015,04,18,10,36,11.90
2015,04,18,10,37,12.00
2015,04,18,10,38,12.10
2015,04,18,10,39,12.10
2015,04,18,10,40,12.10
2015,04,18,10,41,12.10
2015,04,18,10,42,12.10
2015,04,18,10,43,12.20
2015,04,18,10,44,12.30
2015,04,18,10,45,12.30
2015,04,18,10,46,12.30
2015,04,18,10,47,12.30
2015,04,18,10,48,12.40
2015,04,18,10,49,12.40
2015,04,18,10,50,12.40
2015,04,18,10,51,12.50
2015,04,18,10,52,12.50
2015,04,18,10,53,12.60
2015,04,18,10,54,12.70
2015,04,18,10,55,12.80
2015,04,18,10,56,12.80
2015,04,18,10,57,12.80
2015,04,18,10,58,12.80
2015,04,18,10,59,12.80
2015,04,18,11,00,12.80
2015,04,18,11,01,12.80
2015,04,18,11,02,12.80
2015,04,18,11,03,12.80
2015,04,18,11,04,12.80
2015,04,18,11,05,12.80
2015,04,18,11,06,12.80
2015,04,18,11,07,12.90
2015,04,18,11,08,12.90
2015,04,18,11,09,12.90
2015,04,18,11,10,12.90
2015,04,18,11,11,12.90
2015,04,18,11,12,12.90
2015,04,18,11,13,13.00
2015,04,18,11,14,13.00
2015,04,18,11,15,13.00
2015,04,18,11,16,13.10
2015,04,18,11,17,13.10
2015,04,18,11,18,13.20
2015,04,18,11,19,13.10
2015,04,18,11,20,13.10
2015,04,18,11,21,13.10
2015,04,18,11,22,13.20
2015,04,18,11,23,13.20
2015,04,18,11,24,13.20
2015,04,18,11,25,13.20
2015,04,18,11,26,13.30
2015,04,18,11,27,13.30
2015,04,18,11,28,13.30
2015,04,18,11,29,13.20
2015,04,18,11,30,13.20
2015,04,18,11,31,13.20
2015,04,18,11,32,13.30
2015,04,18,11,33,13.30
2015,04,18,11,34,13.30
2015,04,18,11,35,13.40
2015,04,18,11,36,13.40
2015,04,18,11,37,13.50
2015,04,18,11,38,13.50
2015,04,18,11,39,13.50
2015,04,18,11,40,13.50
2015,04,18,11,41,13.50
2015,04,18,11,42,13.50
2015,04,18,11,43,13.50
2015,04,18,11,44,13.50
2015,04,18,11,45,13.60
2015,04,18,11,46,13.60
2015,04,18,11,47,13.70
2015,04,18,11,48,13.70
2015,04,18,11,49,13.70
2015,04,18,11,50,13.70
2015,04,18,11,51,13.70
2015,04,18,11,52,13.80
2015,04,18,11,53,13.80
2015,04,18,11,54,13.90
2015,04,18,11,55,14.00
2015,04,18,11,56,14.10
2015,04,18,11,57,14.10
2015,04,18,11,58,14.10
2015,04,18,11,59,14.10
2015,04,18,12,00,14.10
2015,04,18,12,01,14.10
2015,04,18,12,02,14.10
2015,04,18,12,03,14.10
2015,04,18,12,04,14.20
2015,04,18,12,05,14.20
2015,04,18,12,06,14.20
2015,04,18,12,07,14.10
2015,04,18,12,08,14.10
2015,04,18,12,09,14.10
2015,04,18,12,10,14.10
2015,04,18,12,11,14.10
2015,04,18,12,12,14.10
2015,04,18,12,13,14.10
2015,04,18,12,14,14.10
2015,04,18,12,15,14.20
2015,04,18,12,16,14.20
2015,04,18,12,17,14.20
2015,04,18,12,18,14.20
2015,04,18,12,19,14.20
2015,04,18,12,20,14.10
2015,04,18,12,21,14.10
2015,04,18,12,22,14.00
2015,04,18,12,23,13.90
2015,04,18,12,24,13.80
2015,04,18,12,25,13.80
2015,04,18,12,26,13.80
2015,04,18,12,27,13.80
2015,04,18,12,28,13.80
2015,04,18,12,29,13.80
2015,04,18,12,30,14.00
2015,04,18,12,31,14.10
2015,04,18,12,32,14.20
2015,04,18,12,33,14.30
2015,04,18,12,34,14.40
2015,04,18,12,35,14.40
2015,04,18,12,36,14.40
2015,04,18,12,37,14.40
2015,04,18,12,38,14.40
2015,04,18,12,39,14.40
2015,04,18,12,40,14.40
2015,04,18,12,41,14.40
2015,04,18,12,42,14.30
2015,04,18,12,43,14.40
2015,04,18,12,44,14.40
2015,04,18,12,45,14.40
2015,04,18,12,46,14.50
2015,04,18,12,47,14.50
2015,04,18,12,48,14.60
2015,04,18,12,49,14.60
2015,04,18,12,50,14.70
2015,04,18,12,51,14.70
2015,04,18,12,52,14.80
2015,04,18,12,53,14.80
2015,04,18,12,54,14.80
2015,04,18,12,55,14.80
2015,04,18,12,56,14.80
2015,04,18,12,57,14.80
2015,04,18,12,58,14.80
2015,04,18,12,59,14.80
2015,04,18,13,00,14.70
2015,04,18,13,01,14.70
2015,04,18,13,02,14.70
2015,04,18,13,03,14.70
2015,04,18,13,04,14.70
2015,04,18,13,05,14.70
2015,04,18,13,06,14.70
2015,04,18,13,07,14.80
2015,04,18,13,08,14.90
2015,04,18,13,09,14.90
2015,04,18,13,10,15.00
2015,04,18,13,11,15.10
2015,04,18,13,12,15.20
2015,04,18,13,13,15.20
2015,04,18,13,14,15.20
2015,04,18,13,15,15.20
2015,04,18,13,16,15.20
2015,04,18,13,17,15.10
2015,04,18,13,18,15.10
2015,04,18,13,19,15.10
2015,04,18,13,20,15.10
2015,04,18,13,21,15.00
2015,04,18,13,22,15.00
2015,04,18,13,23,14.90
2015,04,18,13,24,15.00
2015,04,18,13,25,15.00
2015,04,18,13,26,15.00
2015,04,18,13,27,15.10
2015,04,18,13,28,15.20
2015,04,18,13,29,15.40
2015,04,18,13,30,15.50
2015,04,18,13,31,15.60
2015,04,18,13,32,15.70
2015,04,18,13,33,15.80
2015,04,18,13,34,15.90
2015,04,18,13,35,15.90
2015,04,18,13,36,15.90
2015,04,18,13,37,15.90
2015,04,18,13,38,15.90
2015,04,18,13,39,15.80
2015,04,18,13,40,15.70
2015,04,18,13,41,15.70
2015,04,18,13,42,15.70
2015,04,18,13,43,15.60
2015,04,18,13,44,15.60
2015,04,18,13,45,15.60
2015,04,18,13,46,15.60
2015,04,18,13,47,15.70
2015,04,18,13,48,15.70
2015,04,18,13,49,15.70
2015,04,18,13,50,15.70
2015,04,18,13,51,15.70
2015,04,18,13,52,15.80
2015,04,18,13,53,15.80
2015,04,18,13,54,15.80
2015,04,18,13,55,15.90
2015,04,18,13,56,15.90
2015,04,18,13,57,15.90
2015,04,18,13,58,15.80
2015,04,18,13,59,15.80
2015,04,18,14,00,15.90
2015,04,18,14,01,15.90
2015,04,18,14,02,16.00
2015,04,18,14,03,16.00
2015,04,18,14,04,16.10
2015,04,18,14,05,16.10
2015,04,18,14,06,16.20
2015,04,18,14,07,16.20
2015,04,18,14,08,16.20
2015,04,18,14,09,16.20
2015,04,18,14,10,16.20
2015,04,18,14,11,16.20
2015,04,18,14,12,16.30
2015,04,18,14,13,16.30
2015,04,18,14,14,16.40
2015,04,18,14,15,16.40
2015,04,18,14,16,16.50
2015,04,18,14,17,16.60
2015,04,18,14,18,16.70
2015,04,18,14,19,16.70
2015,04,18,14,20,16.60
2015,04,18,14,21,16.60
2015,04,18,14,22,16.50
2015,04,18,14,23,16.50
2015,04,18,14,24,16.50
2015,04,18,14,25,16.50
2015,04,18,14,26,16.50
2015,04,18,14,27,16.40
2015,04,18,14,28,16.40
2015,04,18,14,29,16.40
2015,04,18,14,30,16.40
2015,04,18,14,31,16.40
2015,04,18,14,32,16.50
2015,04,18,14,33,16.50
2015,04,18,14,34,16.50
2015,04,18,14,35,16.50
2015,04,18,14,36,16.50
2015,04,18,14,37,16.50
2015,04,18,14,38,16.60
2015,04,18,14,39,16.60
2015,04,18,14,40,16.60
2015,04,18,14,41,16.60
2015,04,18,14,42,16.60
2015,04,18,14,43,16.60
2015,04,18,14,44,16.60
2015,04,18,14,45,16.60
2015,04,18,14,46,16.60
2015,04,18,14,47,16.60
2015,04,18,14,48,16.60
2015,04,18,14,49,16.60
2015,04,18,14,50,16.60
2015,04,18,14,51,16.50
2015,04,18,14,52,16.50
2015,04,18,14,53,16.50
2015,04,18,14,54,16.50
2015,04,18,14,55,16.50
2015,04,18,14,56,16.50
2015,04,18,14,57,16.40
2015,04,18,14,58,16.40
2015,04,18,14,59,16.40
2015,04,18,15,00,16.40
2015,04,18,15,01,16.50
2015,04,18,15,02,16.50
2015,04,18,15,03,16.60
2015,04,18,15,04,16.60
2015,04,18,15,05,16.70
2015,04,18,15,06,16.70
2015,04,18,15,07,16.70
2015,04,18,15,08,16.70
2015,04,18,15,09,16.70
2015,04,18,15,10,16.70
2015,04,18,15,11,16.70
2015,04,18,15,12,16.60
2015,04,18,15,13,16.60
2015,04,18,15,14,16.50
2015,04,18,15,15,16.40
2015,04,18,15,16,16.30
2015,04,18,15,17,16.30
2015,04,18,15,18,16.30
2015,04,18,15,19,16.20
2015,04,18,15,20,16.20
2015,04,18,15,21,16.20
2015,04,18,15,22,16.20
2015,04,18,15,23,16.20
2015,04,18,15,24,16.20
2015,04,18,15,25,16.20
2015,04,18,15,26,16.30
2015,04,18,15,27,16.30
2015,04,18,15,28,16.30
2015,04,18,15,29,16.30
2015,04,18,15,30,16.30
2015,04,18,15,31,16.40
2015,04,18,15,32,16.40
2015,04,18,15,33,16.40
2015,04,18,15,34,16.40
2015,04,18,15,35,16.40
2015,04,18,15,36,16.50
2015,04,18,15,37,16.50
2015,04,18,15,38,16.60
2015,04,18,15,39,16.60
2015,04,18,15,40,16.60
2015,04,18,15,41,16.70
2015,04,18,15,42,16.70
2015,04,18,15,43,16.70
2015,04,18,15,44,16.70
2015,04,18,15,45,16.70
2015,04,18,15,46,16.70
2015,04,18,15,47,16.70
2015,04,18,15,48,16.70
2015,04,18,15,49,16.70
2015,04,18,15,50,16.70
2015,04,18,15,51,16.70
2015,04,18,15,52,16.80
2015,04,18,15,53,16.90
2015,04,18,15,54,17.00
2015,04,18,15,55,17.00
2015,04,18,15,56,17.10
2015,04,18,15,57,17.20
2015,04,18,15,58,17.30
2015,04,18,15,59,17.30
2015,04,18,16,00,17.30
2015,04,18,16,01,17.20
2015,04,18,16,02,17.10
2015,04,18,16,03,17.00
2015,04,18,16,04,16.90
2015,04,18,16,05,16.80
2015,04,18,16,06,16.80
2015,04,18,16,07,16.90
2015,04,18,16,08,16.90
2015,04,18,16,09,16.80
2015,04,18,16,10,16.80
2015,04,18,16,11,16.80
2015,04,18,16,12,16.80
2015,04,18,16,13,16.70
2015,04,18,16,14,16.60
2015,04,18,16,15,16.60
2015,04,18,16,16,16.60
2015,04,18,16,17,16.60
2015,04,18,16,18,16.70
2015,04,18,16,19,16.80
2015,04,18,16,20,16.80
2015,04,18,16,21,16.90
2015,04,18,16,22,17.00
2015,04,18,16,23,17.00
2015,04,18,16,24,17.00
2015,04,18,16,25,17.00
2015,04,18,16,26,17.00
2015,04,18,16,27,16.90
2015,04,18,16,28,16.90
2015,04,18,16,29,16.90
2015,04,18,16,30,16.90
2015,04,18,16,31,17.00
2015,04,18,16,32,17.00
2015,04,18,16,33,17.10
2015,04,18,16,34,17.10
2015,04,18,16,35,17.10
2015,04,18,16,36,17.10
2015,04,18,16,37,17.10
2015,04,18,16,38,17.10
2015,04,18,16,39,17.10
2015,04,18,16,40,17.20
2015,04,18,16,41,17.20
2015,04,18,16,42,17.20
2015,04,18,16,43,17.30
2015,04,18,16,44,17.30
2015,04,18,16,45,17.20
2015,04,18,16,46,17.20
2015,04,18,16,47,17.20
2015,04,18,16,48,17.20
2015,04,18,16,49,17.20
2015,04,18,16,50,17.10
2015,04,18,16,51,17.10
2015,04,18,16,52,17.10
2015,04,18,16,53,17.10
2015,04,18,16,54,17.10
2015,04,18,16,55,17.10
2015,04,18,16,56,17.20
2015,04,18,16,57,17.20
2015,04,18,16,58,17.20
2015,04,18,16,59,17.20
2015,04,18,17,00,17.20
2015,04,18,17,01,17.20
2015,04,18,17,02,17.20
2015,04,18,17,03,17.10
2015,04,18,17,04,17.10
2015,04,18,17,05,17.10
2015,04,18,17,06,17.10
2015,04,18,17,07,17.10
2015,04,18,17,08,17.20
2015,04,18,17,09,17.20
2015,04,18,17,10,17.30
2015,04,18,17,11,17.30
2015,04,18,17,12,17.40
2015,04,18,17,13,17.40
2015,04,18,17,14,17.40
2015,04,18,17,15,17.40
2015,04,18,17,16,17.40
2015,04,18,17,17,17.40
2015,04,18,17,18,17.40
2015,04,18,17,19,17.30
2015,04,18,17,20,17.30
2015,04,18,17,21,17.30
2015,04,18,17,22,17.30
2015,04,18,17,23,17.30
2015,04,18,17,24,17.20
2015,04,18,17,25,17.20
2015,04,18,17,26,17.20
2015,04,18,17,27,17.20
2015,04,18,17,28,17.10
2015,04,18,17,29,17.10
2015,04,18,17,30,17.20
2015,04,18,17,31,17.20
2015,04,18,17,32,17.20
2015,04,18,17,33,17.30
2015,04,18,17,34,17.30
2015,04,18,17,35,17.40
2015,04,18,17,36,17.40
2015,04,18,17,37,17.50
2015,04,18,17,38,17.50
2015,04,18,17,39,17.60
2015,04,18,17,40,17.70
2015,04,18,17,41,17.70
2015,04,18,17,42,17.80